TimeCDT,TemperatureF,Dew PointF,Humidity,Sea Level PressureIn,VisibilityMPH,Wind Direction,Wind SpeedMPH,Gust SpeedMPH,PrecipitationIn,Events,Conditions,WindDirDegrees,DateUTC
12:14 AM,44.6,39.2,81,29.94,10.0,NW,12.7,18.4,N/A,,Overcast,320,2013-11-02 05:14:00
12:33 AM,44.6,39.2,81,29.94,10.0,NW,10.4,-,N/A,,Mostly Cloudy,320,2013-11-02 05:33:00
12:54 AM,42.8,39.2,87,29.95,10.0,NW,10.4,16.1,N/A,,Mostly Cloudy,320,2013-11-02 05:54:00
1:14 AM,42.8,37.4,81,29.96,10.0,NW,8.1,-,N/A,,Mostly Cloudy,310,2013-11-02 06:14:00
1:33 AM,42.8,37.4,81,29.97,10.0,NW,8.1,-,N/A,,Mostly Cloudy,310,2013-11-02 06:33:00
1:54 AM,41.0,37.4,87,29.98,10.0,NW,8.1,-,N/A,,Clear,310,2013-11-02 06:54:00
2:14 AM,39.2,35.6,87,29.98,10.0,WNW,6.9,-,N/A,,Clear,300,2013-11-02 07:14:00
2:33 AM,39.2,35.6,87,29.99,10.0,WNW,6.9,-,N/A,,Clear,290,2013-11-02 07:33:00
2:54 AM,37.4,33.8,87,29.99,10.0,WNW,6.9,-,N/A,,Clear,290,2013-11-02 07:54:00
3:14 AM,37.4,35.6,93,29.99,10.0,WNW,9.2,-,N/A,,Clear,290,2013-11-02 08:14:00
3:34 AM,37.4,35.6,93,29.99,10.0,WNW,8.1,-,N/A,,Clear,290,2013-11-02 08:34:00
3:54 AM,35.6,33.8,93,29.99,10.0,West,8.1,-,N/A,,Clear,280,2013-11-02 08:54:00
4:13 AM,35.6,33.8,93,29.99,10.0,West,8.1,-,N/A,,Clear,280,2013-11-02 09:13:00
4:33 AM,35.6,33.8,93,29.99,10.0,WNW,8.1,-,N/A,,Clear,290,2013-11-02 09:33:00
4:53 AM,35.6,33.8,93,30.00,10.0,WNW,8.1,-,N/A,,Clear,290,2013-11-02 09:53:00
5:14 AM,35.6,32.0,87,30.01,10.0,West,9.2,-,N/A,,Clear,280,2013-11-02 10:14:00
5:33 AM,35.6,32.0,87,30.01,10.0,WNW,8.1,-,N/A,,Clear,290,2013-11-02 10:33:00
5:53 AM,35.6,32.0,87,30.02,10.0,West,8.1,-,N/A,,Clear,280,2013-11-02 10:53:00
6:14 AM,33.8,32.0,93,30.03,10.0,WNW,6.9,-,N/A,,Clear,290,2013-11-02 11:14:00
6:33 AM,33.8,32.0,93,30.03,10.0,WNW,6.9,-,N/A,,Clear,290,2013-11-02 11:33:00
6:54 AM,33.8,30.2,87,30.04,10.0,West,6.9,-,N/A,,Clear,280,2013-11-02 11:54:00
7:14 AM,33.8,30.2,87,30.04,10.0,West,6.9,-,N/A,,Clear,270,2013-11-02 12:14:00
7:33 AM,33.8,30.2,87,30.04,10.0,West,6.9,-,N/A,,Clear,280,2013-11-02 12:33:00
7:54 AM,33.8,30.2,87,30.04,10.0,West,6.9,-,N/A,,Clear,280,2013-11-02 12:54:00
8:14 AM,33.8,30.2,87,30.04,10.0,West,5.8,-,N/A,,Clear,280,2013-11-02 13:14:00
8:33 AM,32.0,30.2,93,30.05,10.0,West,6.9,-,N/A,,Clear,270,2013-11-02 13:33:00
8:54 AM,33.8,30.2,87,30.05,10.0,West,5.8,-,N/A,,Clear,270,2013-11-02 13:54:00
9:13 AM,35.6,32.0,87,30.06,10.0,West,4.6,-,N/A,,Clear,260,2013-11-02 14:13:00
9:34 AM,37.4,33.8,87,30.06,10.0,West,4.6,-,N/A,,Clear,270,2013-11-02 14:34:00
9:54 AM,39.2,35.6,87,30.06,10.0,West,5.8,-,N/A,,Clear,270,2013-11-02 14:54:00
10:13 AM,42.8,35.6,76,30.07,10.0,WNW,5.8,-,N/A,,Clear,290,2013-11-02 15:13:00
10:34 AM,44.6,37.4,76,30.07,10.0,WNW,6.9,-,N/A,,Clear,290,2013-11-02 15:34:00
10:54 AM,46.4,37.4,71,30.07,10.0,NW,6.9,-,N/A,,Clear,310,2013-11-02 15:54:00
11:13 AM,46.4,37.4,71,30.07,10.0,WNW,5.8,-,N/A,,Clear,300,2013-11-02 16:13:00
11:34 AM,48.2,37.4,66,30.07,10.0,WNW,3.5,-,N/A,,Clear,300,2013-11-02 16:34:00
11:54 AM,48.2,35.6,62,30.07,10.0,Calm,Calm,-,N/A,,Clear,0,2013-11-02 16:54:00
12:13 PM,50.0,37.4,62,30.07,10.0,NW,3.5,-,N/A,,Clear,320,2013-11-02 17:13:00
12:34 PM,51.8,37.4,58,30.07,10.0,NNW,3.5,-,N/A,,Clear,330,2013-11-02 17:34:00
12:54 PM,53.6,37.4,54,30.07,10.0,NW,4.6,-,N/A,,Clear,310,2013-11-02 17:54:00
1:13 PM,53.6,37.4,54,30.06,10.0,WNW,3.5,-,N/A,,Clear,290,2013-11-02 18:13:00
1:34 PM,53.6,37.4,54,30.05,10.0,NNW,5.8,-,N/A,,Clear,330,2013-11-02 18:34:00
1:53 PM,55.4,37.4,51,30.05,10.0,North,4.6,-,N/A,,Clear,350,2013-11-02 18:53:00
2:14 PM,55.4,37.4,51,30.04,10.0,WNW,3.5,-,N/A,,Clear,290,2013-11-02 19:14:00
2:33 PM,55.4,37.4,51,30.04,10.0,WNW,6.9,-,N/A,,Clear,300,2013-11-02 19:33:00
2:54 PM,55.4,35.6,47,30.04,10.0,WNW,9.2,-,N/A,,Clear,290,2013-11-02 19:54:00
3:13 PM,55.4,35.6,47,30.04,10.0,NNW,10.4,-,N/A,,Clear,330,2013-11-02 20:13:00
3:34 PM,55.4,35.6,47,30.04,10.0,WNW,9.2,-,N/A,,Clear,290,2013-11-02 20:34:00
3:53 PM,55.4,33.8,44,30.04,10.0,NNW,9.2,-,N/A,,Clear,330,2013-11-02 20:53:00
4:14 PM,55.4,33.8,44,30.03,10.0,NW,9.2,-,N/A,,Clear,320,2013-11-02 21:14:00
4:34 PM,55.4,35.6,47,30.03,10.0,North,5.8,-,N/A,,Clear,350,2013-11-02 21:34:00
4:53 PM,55.4,33.8,44,30.03,10.0,North,3.5,-,N/A,,Clear,360,2013-11-02 21:53:00
5:14 PM,53.6,35.6,51,30.03,10.0,NNE,4.6,-,N/A,,Clear,20,2013-11-02 22:14:00
5:34 PM,51.8,35.6,54,30.03,10.0,NNE,5.8,-,N/A,,Clear,30,2013-11-02 22:34:00
5:53 PM,51.8,37.4,58,30.03,10.0,ENE,3.5,-,N/A,,Clear,60,2013-11-02 22:53:00
6:14 PM,46.4,35.6,66,30.02,10.0,ENE,5.8,-,N/A,,Clear,70,2013-11-02 23:14:00
6:33 PM,46.4,35.6,66,30.03,10.0,East,5.8,-,N/A,,Clear,80,2013-11-02 23:33:00
6:54 PM,44.6,35.6,71,30.03,10.0,East,5.8,-,N/A,,Clear,90,2013-11-02 23:54:00
7:13 PM,42.8,33.8,70,30.03,10.0,East,5.8,-,N/A,,Clear,90,2013-11-03 00:13:00
7:34 PM,42.8,33.8,70,30.03,10.0,East,5.8,-,N/A,,Clear,100,2013-11-03 00:34:00
7:54 PM,41.0,33.8,76,30.03,10.0,ESE,4.6,-,N/A,,Clear,120,2013-11-03 00:54:00
8:13 PM,42.8,33.8,70,30.03,10.0,SE,4.6,-,N/A,,Clear,130,2013-11-03 01:13:00
8:34 PM,42.8,33.8,70,30.02,10.0,SE,5.8,-,N/A,,Clear,140,2013-11-03 01:34:00
8:54 PM,39.2,33.8,81,30.03,10.0,SSE,3.5,-,N/A,,Clear,150,2013-11-03 01:54:00
9:13 PM,39.2,33.8,81,30.02,10.0,SSE,4.6,-,N/A,,Clear,160,2013-11-03 02:13:00
9:34 PM,39.2,33.8,81,30.02,10.0,SSE,6.9,-,N/A,,Clear,160,2013-11-03 02:34:00
9:53 PM,37.4,33.8,87,30.02,10.0,South,4.6,-,N/A,,Clear,170,2013-11-03 02:53:00
10:14 PM,39.2,35.6,87,30.02,10.0,SSE,4.6,-,N/A,,Clear,150,2013-11-03 03:14:00
10:34 PM,39.2,35.6,87,30.02,10.0,SE,6.9,-,N/A,,Clear,140,2013-11-03 03:34:00
10:53 PM,42.8,35.6,76,30.01,10.0,SE,5.8,-,N/A,,Clear,130,2013-11-03 03:53:00
11:14 PM,41.0,35.6,81,30.02,10.0,SE,6.9,-,N/A,,Clear,140,2013-11-03 04:14:00
11:33 PM,39.2,35.6,87,30.01,10.0,SSE,6.9,-,N/A,,Clear,150,2013-11-03 04:33:00
11:54 PM,39.2,35.6,87,30.01,10.0,SE,8.1,-,N/A,,Clear,140,2013-11-03 04:54:00